| time (UTC) | temp F | wind direction | speed MPH | gust MPH | rain 1hr in | rain 24hr in | rain mn in | humidity % | barometer mb |
| 20260906052418 | 75 | 45 | 2.0 | 4.0 | 0.00 | 0.00 | 0.00 | 84 | 1017.4 |
| 20260906051416 | 75 | 68 | 2.0 | 5.0 | 0.00 | 0.00 | 0.00 | 84 | 1017.4 |
| 20260906050417 | 75 | 68 | 3.0 | 4.0 | 0.00 | 0.00 | 0.00 | 84 | 1017.2 |
| 20260906045416 | 75 | 45 | 3.0 | 4.0 | 0.00 | 0.00 | 0.00 | 84 | 1017.1 |
| 20260906044416 | 76 | 68 | 1.0 | 5.0 | 0.00 | 0.00 | 0.00 | 84 | 1016.9 |
| 20260906043416 | 76 | 68 | 3.0 | 4.0 | 0.00 | 0.00 | 0.00 | 84 | 1016.8 |
| 20260906042456 | 76 | 45 | 3.0 | 4.0 | 0.00 | 0.00 | 0.00 | 84 | 1016.7 |
| 20260906041416 | 76 | 68 | 3.0 | 3.0 | 0.00 | 0.00 | 0.00 | 84 | 1016.6 |
| 20260906040416 | 76 | 68 | 5.0 | 8.0 | 0.00 | 0.00 | 0.00 | 84 | 1016.5 |
| 20260906035436 | 77 | 68 | 5.0 | 7.0 | 0.00 | 0.00 | 0.00 | 84 | 1016.4 |
| 20260906034416 | 77 | 45 | 4.0 | 6.0 | 0.00 | 0.00 | 0.00 | 84 | 1016.2 |
| 20260906033416 | 77 | 68 | 4.0 | 7.0 | 0.00 | 0.00 | 0.00 | 83 | 1016.3 |
| 20260906032416 | 78 | 68 | 6.0 | 9.0 | 0.00 | 0.00 | 0.00 | 83 | 1016.3 |
| 20260906031416 | 78 | 68 | 3.0 | 4.0 | 0.00 | 0.00 | 0.00 | 83 | 1016.1 |
| 20260906030416 | 79 | 45 | 4.0 | 7.0 | 0.00 | 0.00 | 0.00 | 83 | 1016.1 |
| 20260906025416 | 79 | 68 | 3.0 | 4.0 | 0.00 | 0.00 | 0.00 | 83 | 1016.1 |
| 20260906024416 | 80 | 68 | 7.0 | 10.0 | 0.00 | 0.00 | 0.00 | 83 | 1016.1 |
| 20260906023416 | 80 | 90 | 3.0 | 5.0 | 0.00 | 0.00 | 0.00 | 83 | 1016.0 |
| 20260906022416 | 81 | 90 | 3.0 | 5.0 | 0.00 | 0.00 | 0.00 | 82 | 1015.8 |
| 20260906021417 | 81 | 68 | 4.0 | 7.0 | 0.00 | 0.00 | 0.00 | 82 | 1015.6 |
| 20260906020416 | 82 | 45 | 5.0 | 8.0 | 0.00 | 0.00 | 0.00 | 82 | 1015.5 |
| 20260906015416 | 82 | 45 | 4.0 | 7.0 | 0.00 | 0.00 | 0.00 | 81 | 1015.3 |
| 20260906014416 | 83 | 68 | 2.0 | 3.0 | 0.00 | 0.00 | 0.00 | 81 | 1015.3 |
| 20260906013436 | 83 | 45 | 4.0 | 6.0 | 0.00 | 0.00 | 0.00 | 80 | 1015.1 |
| 20260906012416 | 84 | 45 | 5.0 | 7.0 | 0.00 | 0.00 | 0.00 | 80 | 1014.8 |
| 20260906011416 | 84 | 68 | 3.0 | 6.0 | 0.00 | 0.00 | 0.00 | 79 | 1014.7 |
| 20260906010416 | 85 | 45 | 3.0 | 5.0 | 0.00 | 0.00 | 0.00 | 78 | 1014.6 |
| 20260906005416 | 86 | 23 | 4.0 | 9.0 | 0.00 | 0.00 | 0.00 | 77 | 1014.6 |
| 20260906004416 | 87 | 23 | 3.0 | 7.0 | 0.00 | 0.00 | 0.00 | 76 | 1014.6 |
| 20260906003416 | 87 | 23 | 2.0 | 4.0 | 0.00 | 0.00 | 0.00 | 75 | 1014.5 |
| 20260906002416 | 88 | 45 | 2.0 | 4.0 | 0.00 | 0.00 | 0.00 | 74 | 1014.5 |
| 20260906001416 | 88 | 23 | 1.0 | 2.0 | 0.00 | 0.00 | 0.00 | 74 | 1014.6 |
| 20260906000418 | 89 | 0 | 1.0 | 2.0 | 0.00 | 0.00 | 0.00 | 74 | 1014.6 |
| 20260905235416 | 89 | 0 | 2.0 | 3.0 | 0.00 | 0.00 | 0.00 | 73 | 1014.5 |
| 20260905234416 | 89 | 338 | 2.0 | 3.0 | 0.00 | 0.00 | 0.00 | 72 | 1014.4 |
| 20260905233416 | 90 | 45 | 2.0 | 4.0 | 0.00 | 0.00 | 0.00 | 72 | 1014.3 |
| 20260905232415 | 90 | 45 | 1.0 | 2.0 | 0.00 | 0.00 | 0.00 | 73 | 1014.4 |
| 20260905231416 | 90 | 45 | 3.0 | 5.0 | 0.00 | 0.00 | 0.00 | 71 | 1014.3 |
| 20260905230416 | 91 | 45 | 4.0 | 6.0 | 0.00 | 0.00 | 0.00 | 69 | 1014.3 |
| 20260905225416 | 92 | 68 | 5.0 | 7.0 | 0.00 | 0.00 | 0.00 | 67 | 1014.3 |
| 20260905224435 | 92 | 68 | 2.0 | 4.0 | 0.00 | 0.00 | 0.00 | 65 | 1014.3 |
| 20260905223415 | 92 | 68 | 2.0 | 3.0 | 0.00 | 0.00 | 0.00 | 65 | 1014.2 |
| 20260905222435 | 92 | 68 | 4.0 | 6.0 | 0.00 | 0.00 | 0.00 | 66 | 1014.2 |
| 20260905221416 | 92 | 45 | 5.0 | 9.0 | 0.00 | 0.00 | 0.00 | 66 | 1014.3 |
| 20260905220416 | 92 | 0 | 4.0 | 5.0 | 0.00 | 0.00 | 0.00 | 67 | 1014.4 |
| 20260905215415 | 92 | 0 | 3.0 | 4.0 | 0.00 | 0.00 | 0.00 | 67 | 1014.4 |
| 20260905214415 | 91 | 23 | 4.0 | 5.0 | 0.00 | 0.00 | 0.00 | 70 | 1014.3 |
| 20260905213415 | 90 | 68 | 3.0 | 5.0 | 0.00 | 0.00 | 0.00 | 70 | 1014.2 |
| 20260905212415 | 91 | 68 | 3.0 | 5.0 | 0.00 | 0.00 | 0.00 | 70 | 1014.3 |
| 20260905211415 | 92 | 23 | 2.0 | 3.0 | 0.00 | 0.00 | 0.00 | 69 | 1014.5 |
| 20260905210455 | 91 | 68 | 3.0 | 5.0 | 0.00 | 0.00 | 0.00 | 70 | 1014.4 |
| 20260905205415 | 92 | 23 | 3.0 | 4.0 | 0.00 | 0.00 | 0.00 | 68 | 1014.6 |
| 20260905204435 | 92 | 68 | 1.0 | 3.0 | 0.00 | 0.00 | 0.00 | 67 | 1014.6 |
| 20260905203415 | 92 | 45 | 5.0 | 5.0 | 0.00 | 0.00 | 0.00 | 66 | 1014.6 |
| 20260905202418 | 92 | 68 | 3.0 | 4.0 | 0.00 | 0.00 | 0.00 | 65 | 1014.7 |
| 20260905201417 | 93 | 315 | 2.0 | 3.0 | 0.00 | 0.00 | 0.00 | 63 | 1015.0 |
| 20260905200437 | 93 | 293 | 2.0 | 3.0 | 0.00 | 0.00 | 0.00 | 61 | 1014.9 |
| 20260905195437 | 93 | 0 | 3.0 | 4.0 | 0.00 | 0.00 | 0.00 | 62 | 1014.9 |
| 20260905194419 | 94 | 315 | 3.0 | 4.0 | 0.00 | 0.00 | 0.00 | 61 | 1015.0 |
| 20260905193417 | 94 | 293 | 4.0 | 6.0 | 0.00 | 0.00 | 0.00 | 62 | 1015.2 |
| 20260905192437 | 94 | 23 | 7.0 | 9.0 | 0.00 | 0.00 | 0.00 | 60 | 1015.2 |
| 20260905191417 | 93 | 293 | 2.0 | 4.0 | 0.00 | 0.00 | 0.00 | 61 | 1015.1 |
| 20260905190437 | 93 | 293 | 5.0 | 8.0 | 0.00 | 0.00 | 0.00 | 61 | 1015.1 |
| 20260905185417 | 92 | 293 | 2.0 | 3.0 | 0.00 | 0.00 | 0.00 | 63 | 1015.1 |
| 20260905184417 | 93 | 293 | 3.0 | 4.0 | 0.00 | 0.00 | 0.00 | 63 | 1015.3 |
| 20260905183417 | 92 | 293 | 3.0 | 4.0 | 0.00 | 0.00 | 0.00 | 62 | 1015.3 |
| 20260905182417 | 92 | 293 | 6.0 | 7.0 | 0.00 | 0.00 | 0.00 | 62 | 1015.3 |
| 20260905181417 | 93 | 293 | 4.0 | 6.0 | 0.00 | 0.00 | 0.00 | 61 | 1015.5 |
| 20260905180418 | 93 | 45 | 3.0 | 4.0 | 0.00 | 0.00 | 0.00 | 62 | 1015.5 |
| 20260905175417 | 93 | 315 | 3.0 | 4.0 | 0.00 | 0.00 | 0.00 | 60 | 1015.5 |
| 20260905174417 | 93 | 0 | 3.0 | 4.0 | 0.00 | 0.00 | 0.00 | 62 | 1015.7 |
| 20260905173417 | 93 | 293 | 5.0 | 7.0 | 0.00 | 0.00 | 0.00 | 62 | 1015.8 |
| 20260905172417 | 93 | 23 | 3.0 | 5.0 | 0.00 | 0.00 | 0.00 | 60 | 1015.8 |
| 20260905171417 | 93 | 315 | 5.0 | 9.0 | 0.00 | 0.00 | 0.00 | 60 | 1015.8 |
| 20260905170417 | 94 | 293 | 3.0 | 5.0 | 0.00 | 0.00 | 0.00 | 60 | 1015.9 |
| 20260905165417 | 94 | 293 | 7.0 | 9.0 | 0.00 | 0.00 | 0.00 | 59 | 1015.9 |
| 20260905164416 | 93 | 270 | 2.0 | 4.0 | 0.00 | 0.00 | 0.00 | 60 | 1015.9 |
| 20260905163416 | 93 | 315 | 3.0 | 4.0 | 0.00 | 0.00 | 0.00 | 62 | 1015.8 |
| 20260905162417 | 91 | 338 | 4.0 | 6.0 | 0.00 | 0.00 | 0.00 | 62 | 1015.8 |
| 20260905161416 | 91 | 293 | 3.0 | 4.0 | 0.00 | 0.00 | 0.00 | 66 | 1015.8 |
| 20260905160417 | 90 | 293 | 4.0 | 5.0 | 0.00 | 0.00 | 0.00 | 67 | 1015.7 |
| 20260905155417 | 90 | 315 | 2.0 | 4.0 | 0.00 | 0.00 | 0.00 | 66 | 1015.8 |
| 20260905154417 | 90 | 315 | 3.0 | 5.0 | 0.00 | 0.00 | 0.00 | 66 | 1015.6 |
| 20260905153416 | 90 | 293 | 2.0 | 3.0 | 0.00 | 0.00 | 0.00 | 66 | 1015.6 |
| 20260905152436 | 90 | 293 | 4.0 | 6.0 | 0.00 | 0.00 | 0.00 | 67 | 1015.7 |
| 20260905151416 | 88 | 293 | 3.0 | 4.0 | 0.00 | 0.00 | 0.00 | 71 | 1015.6 |
| 20260905150416 | 88 | 293 | 3.0 | 6.0 | 0.00 | 0.00 | 0.00 | 70 | 1015.5 |
| 20260905145416 | 87 | 270 | 3.0 | 5.0 | 0.00 | 0.00 | 0.00 | 72 | 1015.4 |
| 20260905144417 | 86 | 293 | 4.0 | 6.0 | 0.00 | 0.00 | 0.00 | 72 | 1015.4 |
| 20260905143416 | 86 | 293 | 3.0 | 4.0 | 0.00 | 0.00 | 0.00 | 73 | 1015.4 |
| 20260905142416 | 85 | 293 | 4.0 | 6.0 | 0.00 | 0.00 | 0.00 | 75 | 1015.4 |
| 20260905141416 | 85 | 293 | 5.0 | 6.0 | 0.00 | 0.00 | 0.00 | 74 | 1015.4 |
| 20260905140438 | 84 | 293 | 3.0 | 5.0 | 0.00 | 0.00 | 0.00 | 75 | 1015.3 |
| 20260905135416 | 83 | 248 | 2.0 | 3.0 | 0.00 | 0.00 | 0.00 | 79 | 1015.3 |
| 20260905134417 | 82 | 293 | 1.0 | 2.0 | 0.00 | 0.00 | 0.00 | 80 | 1015.2 |
| 20260905133416 | 81 | 225 | 3.0 | 3.0 | 0.00 | 0.00 | 0.00 | 81 | 1015.0 |
| 20260905132417 | 80 | 293 | 3.0 | 4.0 | 0.00 | 0.00 | 0.00 | 83 | 1015.0 |
| 20260905131416 | 78 | 293 | 2.0 | 3.0 | 0.00 | 0.00 | 0.00 | 82 | 1015.2 |
| 20260905130416 | 77 | 293 | 2.0 | 3.0 | 0.00 | 0.00 | 0.00 | 81 | 1015.1 |
| 20260905125416 | 76 | 293 | 1.0 | 2.0 | 0.00 | 0.00 | 0.00 | 79 | 1015.2 |
| 20260905124436 | 75 | 293 | 2.0 | 2.0 | 0.00 | 0.00 | 0.00 | 79 | 1015.1 |
| 20260905123416 | 75 | 0.0 | 0.0 | 0.00 | 0.00 | 0.00 | 80 | 1015.0 | |
| 20260905122416 | 74 | 0.0 | 0.0 | 0.00 | 0.00 | 0.00 | 81 | 1015.0 | |
| 20260905121416 | 74 | 0.0 | 0.0 | 0.00 | 0.00 | 0.00 | 81 | 1014.8 | |
| 20260905120416 | 74 | 0.0 | 0.0 | 0.00 | 0.00 | 0.00 | 81 | 1014.7 | |
| 20260905115416 | 74 | 0.0 | 0.0 | 0.00 | 0.00 | 0.00 | 82 | 1014.6 | |
| 20260905114416 | 74 | 0.0 | 0.0 | 0.00 | 0.00 | 0.00 | 82 | 1014.5 | |
| 20260905113416 | 74 | 0.0 | 0.0 | 0.00 | 0.00 | 0.00 | 82 | 1014.5 | |
| 20260905112416 | 74 | 0.0 | 0.0 | 0.00 | 0.00 | 0.00 | 82 | 1014.4 | |
| 20260905111416 | 74 | 0.0 | 0.0 | 0.00 | 0.00 | 0.00 | 83 | 1014.2 | |
| 20260905110416 | 74 | 0.0 | 0.0 | 0.00 | 0.00 | 0.00 | 83 | 1014.2 | |
| 20260905105416 | 74 | 0.0 | 0.0 | 0.00 | 0.00 | 0.00 | 83 | 1014.2 | |
| 20260905104416 | 75 | 0.0 | 0.0 | 0.00 | 0.00 | 0.00 | 83 | 1014.2 | |
| 20260905103416 | 75 | 0.0 | 0.0 | 0.00 | 0.00 | 0.00 | 83 | 1014.3 | |
| 20260905102416 | 75 | 0.0 | 0.0 | 0.00 | 0.00 | 0.00 | 83 | 1014.2 | |
| 20260905101416 | 75 | 0.0 | 0.0 | 0.00 | 0.00 | 0.00 | 83 | 1014.3 | |
| 20260905100416 | 76 | 0.0 | 0.0 | 0.00 | 0.00 | 0.00 | 83 | 1014.3 | |
| 20260905095416 | 76 | 0.0 | 0.0 | 0.00 | 0.00 | 0.00 | 83 | 1014.5 | |
| 20260905094416 | 76 | 0.0 | 0.0 | 0.00 | 0.00 | 0.00 | 83 | 1014.5 | |
| 20260905093456 | 76 | 203 | 1.0 | 2.0 | 0.00 | 0.00 | 0.00 | 83 | 1014.5 |
| 20260905092416 | 76 | 225 | 2.0 | 3.0 | 0.00 | 0.00 | 0.00 | 83 | 1014.5 |
| 20260905091436 | 76 | 225 | 2.0 | 3.0 | 0.00 | 0.00 | 0.00 | 83 | 1014.5 |
| 20260905090416 | 76 | 0.0 | 1.0 | 0.00 | 0.00 | 0.00 | 83 | 1014.5 | |
| 20260905085415 | 76 | 158 | 2.0 | 4.0 | 0.00 | 0.00 | 0.00 | 83 | 1014.5 |
| 20260905084415 | 76 | 180 | 1.0 | 3.0 | 0.00 | 0.00 | 0.00 | 83 | 1014.6 |
| 20260905083455 | 76 | 0.0 | 0.0 | 0.00 | 0.00 | 0.00 | 83 | 1014.6 | |
| 20260905082435 | 76 | 0.0 | 0.0 | 0.00 | 0.00 | 0.00 | 83 | 1014.6 | |
| 20260905081415 | 77 | 0.0 | 0.0 | 0.00 | 0.00 | 0.00 | 83 | 1014.7 | |
| 20260905080415 | 77 | 0.0 | 0.0 | 0.00 | 0.00 | 0.00 | 83 | 1014.7 | |
| 20260905075415 | 78 | 0.0 | 0.0 | 0.00 | 0.00 | 0.00 | 83 | 1014.7 | |
| 20260905074416 | 78 | 0.0 | 1.0 | 0.00 | 0.00 | 0.00 | 82 | 1014.6 | |
| 20260905073415 | 78 | 135 | 1.0 | 2.0 | 0.00 | 0.00 | 0.00 | 83 | 1014.7 |
| 20260905072415 | 78 | 158 | 2.0 | 3.0 | 0.00 | 0.00 | 0.00 | 83 | 1014.6 |
| 20260905071415 | 78 | 158 | 1.0 | 3.0 | 0.00 | 0.00 | 0.00 | 83 | 1014.6 |
| 20260905070415 | 77 | 180 | 3.0 | 5.0 | 0.00 | 0.00 | 0.00 | 83 | 1014.6 |
| 20260905065435 | 77 | 0.0 | 0.0 | 0.00 | 0.00 | 0.00 | 83 | 1014.7 | |
| 20260905064416 | 77 | 180 | 1.0 | 2.0 | 0.00 | 0.00 | 0.00 | 83 | 1014.7 |
| 20260905063415 | 78 | 0.0 | 0.0 | 0.00 | 0.00 | 0.00 | 83 | 1014.9 | |
| 20260905062437 | 78 | 0.0 | 0.0 | 0.00 | 0.00 | 0.00 | 83 | 1014.9 | |
| 20260905061417 | 78 | 135 | 2.0 | 3.0 | 0.00 | 0.00 | 0.00 | 83 | 1015.0 |
| 20260905060417 | 79 | 0.0 | 1.0 | 0.00 | 0.00 | 0.00 | 83 | 1015.1 | |
| 20260905055417 | 79 | 0.0 | 0.0 | 0.00 | 0.00 | 0.00 | 82 | 1015.0 | |
| 20260905054417 | 79 | 0.0 | 0.0 | 0.00 | 0.00 | 0.00 | 82 | 1015.0 | |
| 20260905053417 | 79 | 0.0 | 1.0 | 0.00 | 0.00 | 0.00 | 82 | 1015.0 |